Simultaneous Nadir Overpasses (SNOs) Predictions

Prediction of SNOs between GOES-16 and METOP-C Satellite Orbit:

Table of predicted SNOs for the next 14.0 days since TLE Epoch: 1/15/2022
Index Date Time (GOES-16) GOES-16 Lat,Lon METOP-C Lat,Lon Distance(km) Time Diff (sec)
1 01/17/2022 02:33:41 0.01, -75.17 0.01, -75.23 6.86 80
2 01/19/2022 14:29:12 -0.01, -75.19 -0.12, -74.80 45.71 80
3 01/21/2022 02:50:54 -0.01, -75.18 -0.93, -79.39 479.90 80
4 01/22/2022 02:27:34 -0.01, -75.18 0.17, -74.40 89.66 80
5 01/23/2022 14:49:05 0.01, -75.21 0.87, -78.94 426.19 80
6 01/24/2022 14:25:46 0.01, -75.22 -0.29, -73.96 143.72 80
7 01/26/2022 02:47:27 -0.01, -75.21 -0.75, -78.56 381.18 80
8 01/27/2022 02:24:08 -0.00, -75.22 0.35, -73.56 188.58 80
9 01/28/2022 14:42:59 0.00, -75.25 0.63, -78.12 327.33 80
